Location: Apeadero de Los Molinos-Guadarrama
(40.7091°N, 4.0689°W)
Time: 12:35:11
(UTC+00:00)

Cosmos 2369 Rocket - Pass Details

Date: 14 May 2021
Orbit: 827 x 854 km, 71.0° (Epoch: 18 June)

Event Time Altitude Azimuth Distance (km) Brightness Sun altitude
Exits shadow 23:12:19 71° 285° (WNW) 881 2.2 -28.8°
Maximum altitude 23:12:25 72° 295° (WNW) 880 2.2 -28.8°
Drops below altitude 10° 23:18:04 10° 20° (NNE) 2,463 5.3 -29.1°
Sets 23:20:32 0° 22° (NNE) 3,406 6.1 -29.2°
